Location: Unspecified
(0.0000°N, 0.0000°E)
Time: 19:37:06
(UTC+00:00)

Vanguard 3 - Pass Details

Date: 24 September 2023
Orbit: 507 x 3241 km, 33.3° (Epoch: 29 November)

Event Time Altitude Azimuth Distance (km) Brightness Sun altitude
Rises 18:25:56 0° 262° (W) 6,592 14.0 -8.5°
Reaches altitude 10° 18:32:12 10° 274° (W) 5,112 12.8 -10.0°
Maximum altitude 18:42:00 23° 319° (NW) 3,270 10.7 -12.5°
Drops below altitude 10° 18:48:47 10° 8° (N) 3,398 10.2 -14.2°
Sets 18:51:57 0° 24° (NNE) 3,986 10.4 -15.0°
